Home   Weather   Halberstadt   Past weeks

Flag for Germany Past Weather in Halberstadt, Saxony-Anhalt, Germany — Yesterday and Last 2 Weeks

Now
59 °F

Clear.


Feels Like: 59 °F
Forecast: 47 / 78 °F
Wind: No wind

Location: Braunschweig Wolfsburg

Current Time: Aug 30, 2016 at 10:50:03 PM

Latest Report: Aug 30, 2016 at 9:20 PM


Visibility: 10 mi

Pressure: 30.27 "Hg

Humidity: 72%

Dew Point: 50 °F

Location of HalberstadtLocation

Past Weather in Halberstadt — Graph

°F

Halberstadt Temperature Yesterday

Maximum temperature yesterday: 70 °F (at 11:20 AM)
Minimum temperature yesterday: 59 °F (at 9:50 PM)
Average temperature yesterday: 66 °F

High & Low Weather Summary for the Past Weeks

 TemperatureHumidityPressure
High93 °F (Aug 26, 3:20 PM)100% (Aug 17, 6:50 AM)30.33 "Hg (Aug 17, 6:50 AM)
Low46 °F (Aug 17, 6:50 AM)21% (Aug 25, 4:50 PM)29.80 "Hg (Aug 18, 3:50 PM)
Average71 °F59%30.08 "Hg
* Reported Aug 15 9:20 PM — Aug 30 9:20 PM, Halberstadt, Weather by CustomWeather, © 2016

Note: Actual official high and low records may vary slightly from our data, if they occured in-between our weather recording intervals... More about our weather records

Advertising

Halberstadt Weather History for the Previous 24 Hours

Scroll right to see more
 ConditionsComfort  
Time TempWeatherWind HumidityBarometerVisibility
9:20 PM
Tue, Aug 30
59 °FClear.No wind72%30.27 "Hg10 mi
8:50 PM61 °FSunny.3 mph68%30.27 "Hg10 mi
8:20 PM66 °FSunny.2 mph52%30.27 "Hg10 mi
7:50 PM70 °FSunny.5 mph46%30.27 "Hg10 mi
7:20 PM73 °FSunny.2 mph41%30.27 "Hg10 mi
6:50 PM73 °FSunny.5 mph38%30.27 "Hg10 mi
6:20 PM73 °FSunny.6 mph38%30.27 "Hg10 mi
5:50 PM73 °FSunny.3 mph38%30.27 "Hg10 mi
5:20 PM73 °FSunny.2 mph41%30.27 "Hg10 mi
4:50 PM73 °FSunny.8 mph41%30.27 "Hg10 mi
4:20 PM73 °FSunny.5 mph38%30.27 "Hg10 mi
3:50 PM73 °FSunny.7 mph38%30.30 "Hg10 mi
3:20 PM73 °FSunny.5 mph38%30.30 "Hg10 mi
2:50 PM72 °FSunny.7 mph41%30.30 "Hg10 mi
2:20 PM72 °FPassing clouds.6 mph44%30.30 "HgN/A
1:50 PM72 °FSunny.7 mph44%30.30 "Hg10 mi
1:20 PM70 °FPassing clouds.6 mph46%30.33 "HgN/A
12:50 PM70 °FPassing clouds.5 mph50%30.33 "HgN/A
12:20 PM68 °FPassing clouds.8 mph53%30.33 "HgN/A
11:50 AM66 °FSunny.3 mph52%30.33 "Hg10 mi
11:20 AM66 °FSunny.2 mph56%30.33 "Hg10 mi
10:50 AM64 °FSunny.3 mph64%30.33 "Hg10 mi
10:20 AM63 °FSunny.5 mph68%30.33 "Hg10 mi
9:50 AM61 °FPassing clouds.6 mph77%30.33 "HgN/A
9:20 AM59 °FPassing clouds.5 mph82%30.30 "HgN/A
8:50 AM57 °FSunny.2 mph88%30.30 "Hg10 mi
8:20 AM55 °FSunny.No wind94%30.30 "Hg10 mi
7:50 AM54 °FSunny.No wind100%30.30 "Hg10 mi
7:20 AM52 °FClear.No wind94%30.27 "Hg10 mi
6:50 AM50 °FClear.5 mph94%30.27 "Hg10 mi
Weather by CustomWeather, © 2016

See weather overviewHow to use our weather pages